Location: Unspecified
(0.0000°N, 0.0000°E)
Time: 11:29:13
(UTC+00:00)

Vanguard 3 - Pass Details

Date: 09 December 2017
Orbit: 508 x 3264 km, 33.4° (Epoch: 18 January)

Event Time Altitude Azimuth Distance (km) Brightness Sun altitude
Rises 08:24:45 0° 227° (SW) 5,984 11.4 34.6°
Reaches altitude 10° 08:29:35 10° 222° (SW) 4,514 10.9 35.7°
Maximum altitude 08:40:20 49° 151° (SSE) 1,631 10.1 38.1°
Drops below altitude 10° 08:46:25 10° 77° (ENE) 2,605 10.5 39.4°
Sets 08:48:30 0° 71° (ENE) 3,312 10.7 39.8°
